Point Lay, AK

8:20 AM AKDT on April 30, 2017 (GMT -0800)
Point Lay

Weather History for PPIZ - August, 2013

Change the Weather History Date:

Saturday, August 17, 2013

  Actual Average Record
Temperature  
Mean Temperature 43 °F -  
Max Temperature 45 °F 45 °F 65 °F (2007)
Min Temperature 41 °F 40 °F 32 °F (2006)
Degree Days  
Heating Degree Days 22    
Moisture  
Dew Point 41 °F    
Average Humidity 91    
Maximum Humidity 100    
Minimum Humidity 82    
Precipitation  
Precipitation 0.00 in - - ()
Sea Level Pressure  
Sea Level Pressure 29.82 in    
Wind  
Wind Speed 10 mph (North)    
Max Wind Speed 15 mph    
Max Gust Speed -    
Visibility 10 miles    
Events      
Averages and records for this station are not official NWS values.
T = Trace of Precipitation, MM = Missing Value Source: NWS Daily Summary

Daily Weather History Graph

Daily Weather History Graph

Search for Another Location

Airport or City:

Trip Planner

Search our weather history database for the weather conditions in past years. The results will help you decide how hot, cold, wet, or windy it might be!

Date:

Astronomy

Aug. 17, 2013 Rise Set
Actual Time 6:04 AM AKDT 11:43 PM AKDT
Civil Twilight 4:09 AM AKDT 1:32 AM AKDT
Nautical Twilight Sun does not set Sun does not set
Astronomical Twilight Sun does not set Sun does not set
Moon 10:21 PM AKDT (8/17) 12:25 AM AKDT (8/17)
Length of Visible Light 21h 22m
Length of Day
17h 39m
Waxing Gibbous, 85% of the Moon is Illuminated
Aug 17
Waxing Gibbous
Aug 20
Full
Aug 28
Last Quarter
Sep 5
New
Sep 12
First Quarter

Hourly Weather History & Observations

Time (AKDT) Temp. Windchill Dew Point Humidity Pressure Visibility Wind Dir Wind Speed Gust Speed Precip Events Conditions
12:56 AM 41.9 °F 35.4 °F 41.0 °F 97% 29.85 in 7.0 mi NNE 11.5 mph - N/A   Overcast
1:56 AM 43.0 °F 38.2 °F 41.9 °F 96% 29.85 in 10.0 mi NNE 8.1 mph - N/A   Overcast
2:36 AM 42.8 °F 36.6 °F 42.8 °F 100% 29.84 in 10.0 mi NNE 11.5 mph - N/A   Overcast
2:56 AM 43.0 °F 37.2 °F 41.9 °F 96% 29.85 in 10.0 mi NNE 10.4 mph - N/A   Overcast
3:29 AM 42.8 °F 37.5 °F 41.0 °F 93% 29.83 in 10.0 mi NNE 9.2 mph - N/A   Overcast
3:56 AM 43.0 °F 37.7 °F 41.0 °F 93% 29.84 in 10.0 mi North 9.2 mph - N/A   Overcast
4:12 AM 42.8 °F 38.0 °F 41.0 °F 93% 29.83 in 10.0 mi NNE 8.1 mph - N/A   Overcast
4:24 AM 42.8 °F 38.0 °F 42.8 °F 100% 29.83 in 10.0 mi NNE 8.1 mph - N/A   Overcast
4:56 AM 43.0 °F 37.7 °F 41.9 °F 96% 29.84 in 10.0 mi North 9.2 mph - N/A   Overcast
5:40 AM 42.8 °F 37.0 °F 41.0 °F 93% 29.83 in 10.0 mi North 10.4 mph - N/A   Overcast
5:56 AM 41.9 °F 35.9 °F 41.0 °F 97% 29.84 in 10.0 mi North 10.4 mph - N/A   Overcast
6:56 AM 42.8 °F 38.0 °F 41.0 °F 93% 29.82 in 10.0 mi North 8.1 mph - N/A   Overcast
7:03 AM 42.8 °F 38.0 °F 41.0 °F 93% 29.83 in 10.0 mi NNE 8.1 mph - N/A   Overcast
7:56 AM 43.0 °F 38.2 °F 39.9 °F 89% 29.84 in 10.0 mi North 8.1 mph - N/A   Overcast
8:56 AM 43.0 °F 37.7 °F 39.9 °F 89% 29.84 in 10.0 mi North 9.2 mph - N/A   Overcast
9:56 AM 43.0 °F 38.2 °F 38.8 °F 85% 29.83 in 10.0 mi NNE 8.1 mph - N/A   Overcast
10:56 AM 43.0 °F 38.8 °F 39.9 °F 89% 29.83 in 10.0 mi North 6.9 mph - N/A   Overcast
11:45 AM 42.8 °F 38.6 °F 39.2 °F 87% 29.82 in 10.0 mi North 6.9 mph - N/A   Overcast
11:56 AM 43.9 °F 40.5 °F 39.9 °F 86% 29.83 in 10.0 mi North 5.8 mph - N/A   Overcast
12:56 PM 44.6 °F 38.8 °F 42.8 °F 93% 29.82 in 4.0 mi North 11.5 mph - N/A   Overcast
1:03 PM 44.6 °F 39.7 °F 42.8 °F 93% 29.82 in 6.0 mi North 9.2 mph - N/A   Overcast
1:09 PM 44.6 °F 39.2 °F 42.8 °F 93% 29.82 in 7.0 mi North 10.4 mph - N/A   Overcast
1:56 PM 43.9 °F 37.5 °F 41.9 °F 93% 29.82 in 10.0 mi North 12.7 mph - N/A   Overcast
2:14 PM 44.6 °F 38.4 °F 42.8 °F 93% 29.81 in 8.0 mi North 12.7 mph - N/A   Overcast
2:56 PM 43.9 °F 37.5 °F 41.9 °F 93% 29.81 in 10.0 mi North 12.7 mph - N/A   Overcast
3:36 PM 44.6 °F 37.8 °F 42.8 °F 93% 29.80 in 10.0 mi North 15.0 mph - N/A   Overcast
3:56 PM 44.6 °F 38.1 °F 41.0 °F 87% 29.80 in 10.0 mi North 13.8 mph - N/A   Overcast
4:56 PM 45.0 °F 38.5 °F 41.0 °F 86% 29.81 in 10.0 mi North 13.8 mph - N/A   Overcast
5:56 PM 45.0 °F 38.9 °F 41.9 °F 89% 29.80 in 10.0 mi North 12.7 mph - N/A   Overcast
6:56 PM 45.0 °F 38.9 °F 41.0 °F 86% 29.80 in 10.0 mi North 12.7 mph - N/A   Overcast
7:56 PM 45.9 °F 41.2 °F 41.0 °F 83% 29.79 in 10.0 mi NE 9.2 mph - N/A   Overcast
8:56 PM 45.0 °F 39.7 °F 39.9 °F 82% 29.79 in 10.0 mi NNE 10.4 mph - N/A   Overcast
9:56 PM 45.0 °F 39.3 °F 39.9 °F 82% 29.79 in 10.0 mi North 11.5 mph - N/A   Overcast
10:56 PM 43.9 °F 38.3 °F 38.8 °F 82% 29.79 in 10.0 mi NNE 10.4 mph - N/A   Overcast
11:56 PM 41.9 °F 35.9 °F 38.8 °F 89% 29.79 in 10.0 mi NNE 10.4 mph - N/A   Overcast